This is the latest recevied weather packets stored in our database for station/object KB2SKP. If no packets are shown the sender has not sent any weather packets the latest 10 day(s).
| Time | Temp. | Humidity | Pressure | Rain* | Wind** | Luminosity | Snow |
|---|---|---|---|---|---|---|---|
| 1777528508 | 12.78° C | 97% | 1002.8 hPa | 0 mm | - | 0 W/m² | - |
| 1777528206 | 12.78° C | 97% | 1003.2 hPa | 0 mm | - | 0 W/m² | - |
| 1777527903 | 13.33° C | 97% | 1003.2 hPa | 0 mm | - | 0 W/m² | - |
| 1777527599 | 13.33° C | 97% | 1003.3 hPa | 0 mm | - | 0 W/m² | - |
| 1777527294 | 13.33° C | 97% | 1003.1 hPa | 0 mm | - | 0 W/m² | - |
| 1777526990 | 13.33° C | 97% | 1003.3 hPa | 0 mm | - | 0 W/m² | - |
| 1777526685 | 13.33° C | 97% | 1003.2 hPa | 0 mm | - | 0 W/m² | - |
| 1777526381 | 13.89° C | 97% | 1003.3 hPa | 0 mm | - | 0 W/m² | - |
| 1777526077 | 13.89° C | 97% | 1003.2 hPa | 0 mm | - | 0 W/m² | - |
| 1777525773 | 13.89° C | 97% | 1003.1 hPa | 0 mm | - | 0 W/m² | - |
| 1777525471 | 13.89° C | 97% | 1003.4 hPa | 0.51 mm | - | 0 W/m² | - |
| 1777525166 | 13.89° C | 97% | 1003.3 hPa | 0.51 mm | - | 0 W/m² | - |
| 1777524863 | 13.33° C | 96% | 1003.3 hPa | 1.78 mm | - | 0 W/m² | - |
| 1777524561 | 13.89° C | 96% | 1003.3 hPa | 10.67 mm | - | 0 W/m² | - |
| 1777524258 | 13.89° C | 96% | 1003.7 hPa | 27.69 mm | - | 0 W/m² | - |
| 1777523955 | 13.33° C | 96% | 1003.8 hPa | 24.64 mm | - | 0 W/m² | - |
| 1777523651 | 13.33° C | 95% | 1004.1 hPa | 7.87 mm | - | 0 W/m² | - |
| 1777523347 | 13.33° C | 95% | 1004.2 hPa | 2.29 mm | - | 0 W/m² | - |
| 1777523043 | 13.33° C | 95% | 1004 hPa | 6.1 mm | - | 0 W/m² | - |
| 1777522740 | 13.33° C | 95% | 1004.3 hPa | 2.29 mm | - | 0 W/m² | - |
| 1777522436 | 13.33° C | 95% | 1004.2 hPa | 0 mm | - | 0 W/m² | - |
| 1777522134 | 13.33° C | 95% | 1003.5 hPa | 0 mm | - | 0 W/m² | - |
| 1777521830 | 13.33° C | 95% | 1003.6 hPa | 0 mm | - | 0 W/m² | - |
| 1777521526 | 13.33° C | 95% | 1003.4 hPa | 0 mm | - | 0 W/m² | - |
| 1777521224 | 13.33° C | 95% | 1003.5 hPa | 0 mm | - | 0 W/m² | - |
* Rain latest hour (hover to see other rain measurements)
** Current wind speed in m/s (hover to see current wind gust speed)